Terminal Aerodrome Forecast
Issued by NWS Pueblo, CO

Home | Current Version | Previous Version | Text Only | Print | Product List | Glossary On
Versions: 1 2 3 4 5 6 7 8 9 10 11 12 13 14 15 16
000
FTUS45 KPUB 242333
TAFALS
TAF
KALS 242333Z 2500/2524 24010KT P6SM SCT200
     FM250300 VRB06KT P6SM FEW200
     FM251600 16008KT P6SM SCT200
     FM251900 24015G25KT P6SM FEW140 SCT200=

USA.gov is the U.S. government's official web portal to all federal, state and local government web resources and services.